Wind_Speed
62 60 56 53 50 47 46 45 45 45 46 46 47 47 48 48 48 48 47 48 48 48 47 46 46 47 47 47 47 46 46 47 47 47 47 46 46 45 45 45 45 45 46 47 48 49 50 50 51 51 52 53 54 54 55 55 56 56 57 58 60 61 61 63 64 65 67 68 69 70 70 71 71 72 72 73 74 75 76 77 78 78 79 80 81 81 81 80
61 60 58 56 53 50 48 46 46 46 46 47 47 47 47 48 49 49 48 49 50 50 50 49 48 47 48 48 48 48 48 48 49 49 49 48 47 47 46 46 46 47 48 48 49 50 51 51 52 53 54 54 55 55 56 56 57 58 60 61 62 63 64 66 67 68 69 70 70 70 71 72 72 73 73 74 75 76 77 77 78 78 78 79 79 79 78 77
59 59 58 57 55 53 51 49 48 48 47 47 48 49 49 49 50 49 48 48 49 51 52 52 52 51 49 48 48 47 47 47 48 48 48 47 47 46 46 47 48 49 49 50 50 50 51 51 52 53 54 55 55 56 57 59 60 61 62 63 65 66 67 68 68 69 70 70 71 71 72 72 73 73 74 75 75 76 76 77 77 77 76 76 76 75 75 74
56 58 57 57 56 55 54 52 51 50 49 48 49 50 51 51 51 51 51 49 49 49 51 52 53 54 54 52 51 50 50 49 49 49 49 49 48 47 47 48 48 49 50 50 51 51 52 53 54 55 56 57 58 59 60 61 62 63 64 65 67 67 67 68 68 69 70 71 71 72 72 73 74 74 74 75 75 75 76 76 75 75 74 73 72 72 72 72
53 55 56 56 56 55 55 54 53 52 52 51 50 50 51 52 53 53 54 53 52 52 52 52 53 54 56 56 56 55 55 55 54 55 55 55 55 54 54 54 55 55 55 56 56 57 58 58 59 60 61 62 63 64 65 66 66 67 67 68 68 68 67 68 68 69 70 71 72 73 73 74 74 74 75 75 74 74 74 73 72 72 72 71 70 70 70 70
50 52 54 54 55 55 55 55 55 54 54 53 52 51 51 52 53 54 55 55 56 55 55 55 55 56 56 58 58 58 58 58 59 59 59 59 59 60 60 60 61 61 62 62 63 63 63 64 64 65 65 66 66 67 67 67 67 67 68 68 68 68 68 69 70 70 71 72 73 73 74 74 75 75 75 74 73 72 71 70 69 70 70 69 68 68 68 68
46 49 51 52 54 55 55 55 55 55 56 56 55 54 53 53 53 54 55 56 57 57 58 58 58 58 59 60 61 61 61 61 61 61 61 61 61 61 62 62 62 62 63 63 64 65 65 65 65 65 64 64 64 64 65 66 66 66 67 68 68 69 70 70 71 71 72 73 73 74 74 74 75 74 74 73 71 69 68 67 67 67 68 67 66 66 66 67
41 45 47 50 52 54 55 55 55 56 56 57 57 57 57 56 56 56 56 56 57 58 59 60 60 60 60 61 62 63 64 64 64 63 62 62 62 62 62 62 62 62 62 62 63 63 64 65 65 65 65 65 65 66 66 67 67 68 68 69 70 71 71 71 72 72 73 73 74 75 75 74 74 73 71 70 69 68 66 65 65 66 66 66 66 65 65 66
38 40 43 47 50 52 53 55 56 56 57 58 58 59 59 59 59 59 59 59 59 60 61 62 62 63 62 62 62 62 64 64 65 65 65 64 63 62 62 62 61 61 62 62 62 62 63 64 64 65 66 67 67 68 68 69 69 70 70 70 71 71 72 72 72 72 73 74 75 75 74 73 71 70 68 67 66 65 64 64 65 66 67 67 66 66 66 66
36 38 40 43 46 49 51 53 55 56 57 58 58 59 60 61 61 62 62 62 62 62 63 63 65 65 65 65 64 64 64 64 65 66 66 66 66 65 65 64 63 63 63 64 64 64 65 65 66 66 67 68 68 69 69 69 70 70 71 71 71 70 71 71 72 72 73 73 73 73 72 70 68 67 66 65 64 63 63 63 65 67 68 68 68 68 68 68
35 36 37 40 42 45 47 49 52 54 56 57 58 59 60 61 63 64 65 65 65 66 66 66 67 68 68 69 68 68 67 67 67 67 67 67 68 68 68 67 67 67 67 67 68 68 68 68 69 69 69 69 70 70 70 70 70 70 70 71 70 70 71 71 71 72 71 71 70 69 69 68 66 66 64 63 63 63 63 64 66 69 69 70 70 70 70 70
33 34 35 37 38 40 42 45 48 51 53 55 57 59 60 62 64 65 66 67 68 69 70 70 71 71 72 73 72 72 71 70 70 70 70 70 70 70 70 70 70 70 70 70 70 71 71 71 71 70 70 70 70 70 70 70 70 70 70 70 70 70 70 71 70 70 69 68 67 65 66 66 64 64 64 62 62 63 65 66 69 70 70 71 73 73 73 73
31 32 32 33 34 36 38 41 43 45 47 50 53 55 58 60 63 65 67 68 70 71 72 73 74 76 77 77 77 76 75 75 74 74 74 73 73 73 73 73 73 72 72 72 72 72 72 72 72 71 71 70 70 70 70 69 69 70 69 69 69 69 69 69 68 68 67 66 64 61 62 65 64 64 64 62 62 65 67 70 71 72 72 73 74 74 75 76
28 28 29 30 32 33 33 34 36 38 40 43 45 48 51 53 56 59 61 63 66 69 71 73 75 77 79 80 80 80 80 79 79 78 77 77 77 76 76 75 75 74 74 74 74 73 73 73 72 72 71 71 70 70 70 69 69 69 68 68 68 67 67 67 66 66 65 63 62 60 61 65 65 64 64 63 64 66 69 72 73 73 74 75 76 76 77 78
25 26 27 27 27 27 28 29 31 32 34 36 37 40 42 44 46 49 51 53 55 58 61 63 66 70 73 75 77 78 80 81 81 82 82 81 80 80 79 77 77 76 76 75 75 74 74 73 72 71 71 71 70 70 70 69 69 68 67 66 65 64 64 65 65 65 64 63 62 62 62 65 67 66 66 65 66 69 71 73 73 74 76 77 78 78 79 80
24 24 24 23 23 24 25 26 27 29 30 31 33 35 36 38 40 41 42 44 45 47 49 51 54 58 61 63 65 68 70 72 75 78 80 81 81 81 80 79 78 77 76 75 74 74 73 72 71 70 70 70 70 70 69 68 67 66 65 63 63 63 62 64 64 64 63 62 63 64 64 67 69 68 68 68 69 72 74 73 73 75 78 79 80 80 81 83
21 20 20 20 21 23 24 25 26 27 28 30 31 32 34 35 37 38 39 40 41 42 43 45 46 48 50 53 55 57 59 62 65 68 70 72 74 75 75 75 74 74 73 72 72 72 71 70 70 69 69 68 68 68 67 66 64 63 61 60 61 62 63 64 64 63 63 62 63 65 65 67 70 69 69 70 72 74 74 73 75 77 79 80 81 82 84 86
17 17 18 19 20 21 23 24 25 26 28 29 31 32 34 35 36 37 38 39 40 40 40 41 41 41 42 45 47 48 51 54 57 60 62 63 65 66 67 67 67 68 67 68 68 68 68 68 67 67 66 66 66 65 64 63 61 60 58 58 59 61 64 65 64 62 62 62 64 65 65 67 71 71 71 72 74 75 75 77 79 80 81 81 83 84 87 90
15 16 17 17 19 20 21 22 24 25 27 28 30 32 33 34 36 37 37 38 39 39 39 39 38 37 37 38 40 41 43 46 50 53 55 57 58 59 59 59 60 60 61 62 63 64 64 64 64 64 63 63 63 62 61 61 60 60 60 60 61 63 66 68 66 64 63 64 66 68 68 70 72 74 74 74 74 76 78 80 81 82 82 83 85 88 91 93
14 14 14 16 17 18 20 21 22 24 25 27 29 31 32 34 35 36 37 37 37 38 38 38 38 36 36 35 35 36 37 40 43 46 49 50 51 52 53 53 54 54 55 56 58 59 59 60 61 60 60 60 60 61 62 62 62 63 64 64 65 67 69 69 67 66 66 67 70 72 73 73 74 76 78 78 77 79 81 82 83 84 84 86 88 91 93 95
12 12 13 15 16 18 19 21 22 24 25 27 29 31 33 35 36 37 38 38 37 38 38 38 38 37 36 35 34 34 35 35 37 40 42 44 46 47 48 49 50 50 51 53 54 55 56 57 58 57 57 59 61 63 64 65 65 66 68 68 69 70 70 69 67 67 69 71 73 75 76 77 77 78 81 81 81 81 82 84 85 86 87 89 92 94 96 96
12 13 14 15 17 18 20 22 23 25 27 28 30 32 34 36 37 39 40 40 39 39 39 38 38 39 38 36 34 34 34 34 35 37 39 41 43 44 46 47 49 50 50 50 52 53 54 55 55 56 57 59 62 64 65 66 67 68 69 70 71 71 70 70 69 70 72 73 75 77 78 78 78 78 80 82 82 84 84 85 86 88 91 94 96 97 97 97
13 14 15 16 18 20 21 23 25 26 29 31 32 34 35 37 39 40 42 43 41 40 41 40 39 39 39 38 36 34 35 35 35 37 38 40 41 43 45 47 49 50 50 50 49 50 52 53 54 56 58 60 62 64 65 66 67 68 70 70 70 71 71 70 71 72 74 76 76 77 78 78 77 77 79 81 84 85 86 87 89 91 94 96 97 97 97 97
13 14 16 19 21 23 25 26 27 29 31 33 34 35 37 39 40 42 44 45 44 42 42 41 39 39 40 40 38 36 35 35 36 38 38 39 41 43 45 47 48 50 50 50 49 49 51 53 55 57 60 62 64 65 66 67 68 70 71 71 71 72 73 72 73 74 75 76 76 77 78 77 77 78 80 83 85 86 87 90 92 94 96 97 97 97 96 94
14 17 20 22 24 26 28 29 30 32 33 35 36 37 38 39 40 42 44 45 44 43 43 42 41 39 40 41 40 38 37 37 37 38 39 40 42 44 45 47 48 49 50 50 50 51 52 54 56 59 63 65 66 67 68 69 69 71 73 73 73 73 74 74 75 75 74 74 75 78 79 78 78 81 82 84 86 88 90 93 95 96 97 97 96 95 93 91
18 20 23 25 27 29 31 33 34 35 36 37 38 39 40 40 41 42 43 43 42 43 43 43 42 40 39 40 41 40 39 39 38 39 40 42 43 45 46 47 48 49 50 51 51 53 55 57 59 61 64 66 68 69 70 71 71 72 72 73 73 74 75 75 76 75 74 74 75 79 81 81 81 82 83 86 89 92 94 96 96 96 95 94 93 91 90 89
21 23 26 29 31 34 35 36 37 38 40 41 42 42 42 42 42 41 40 41 40 41 42 42 41 40 38 39 40 41 41 41 40 41 42 43 44 45 46 48 49 50 52 53 54 57 58 60 62 64 66 68 69 70 71 71 71 71 72 73 74 75 76 76 75 75 75 75 77 81 83 83 83 85 87 90 92 94 95 96 95 94 93 91 90 89 88 87
22 25 29 32 34 36 38 38 40 42 43 43 43 43 43 42 41 38 37 37 38 39 40 41 41 39 38 38 39 40 42 42 42 42 43 44 45 45 46 48 50 52 54 55 57 60 62 64 66 67 68 68 69 69 70 70 70 71 73 75 75 75 75 75 74 74 75 76 79 83 84 85 86 89 92 93 93 94 94 93 92 91 90 89 88 87 85 83
22 26 30 33 36 38 39 40 41 44 44 43 43 43 42 41 38 34 32 33 34 35 37 38 39 38 38 38 38 39 41 42 43 44 44 45 46 46 47 49 50 52 55 56 58 60 62 64 65 66 67 67 68 68 69 70 71 73 74 74 74 73 73 73 73 76 77 79 81 84 86 88 89 91 93 94 93 93 92 91 90 89 88 87 85 83 80 77
26 29 32 34 36 38 40 41 43 44 44 43 43 44 42 39 34 31 30 29 30 31 33 35 37 38 38 38 38 39 40 41 42 43 44 45 46 47 48 50 51 52 54 55 57 58 60 61 62 63 65 66 68 69 70 71 72 72 72 72 71 71 72 73 75 78 80 81 84 87 89 91 92 92 93 93 91 90 89 88 87 86 85 81 78 76 75 75
29 31 34 36 37 38 40 43 44 45 44 43 43 43 42 38 33 30 29 28 28 29 30 32 35 37 38 39 39 40 40 41 42 42 44 45 46 47 49 50 51 52 53 55 56 57 59 60 62 64 65 67 68 69 69 69 69 68 69 70 71 73 74 75 77 80 82 85 87 89 91 92 92 91 90 89 88 87 86 85 83 80 76 74 73 74 76 78
31 33 35 37 38 40 42 44 45 45 45 43 42 42 40 36 32 30 28 28 27 27 27 29 32 35 37 39 39 40 41 41 42 43 44 45 46 47 48 50 51 52 53 55 56 58 59 61 62 64 65 66 67 67 67 66 66 67 69 72 74 75 77 78 80 83 85 88 89 91 91 90 89 88 86 86 85 83 81 77 75 72 72 73 75 77 79 81
33 35 36 38 40 42 44 45 46 46 46 44 43 42 39 34 32 30 28 27 27 27 27 28 30 32 35 37 39 40 41 42 43 44 45 46 47 48 49 51 52 53 54 55 57 58 60 62 63 63 64 64 64 64 64 66 67 69 72 74 77 79 80 81 83 85 87 88 88 87 87 85 84 84 83 82 80 76 73 72 71 72 74 76 78 80 82 84
35 36 37 39 42 44 46 47 46 46 46 45 43 43 39 33 31 29 28 26 25 25 26 27 28 30 32 34 37 40 42 43 44 45 47 48 49 50 51 52 53 55 56 56 57 57 59 60 61 61 61 61 62 63 65 67 69 71 75 77 80 83 85 85 85 84 84 82 81 82 82 82 81 79 77 75 73 72 72 73 75 77 78 80 82 84 86 88
36 37 39 41 44 46 47 47 47 46 47 46 44 43 39 33 30 28 28 26 25 25 25 25 26 28 30 31 34 37 39 42 44 45 47 48 49 51 52 53 54 54 55 55 55 54 54 55 57 58 59 61 63 65 68 70 72 75 78 81 83 85 86 85 83 80 79 76 76 78 78 76 74 71 70 71 72 74 76 77 78 80 82 84 86 88 90 92
37 39 41 43 46 47 48 48 47 47 47 47 45 42 38 34 30 28 27 26 25 25 24 24 25 26 28 29 31 33 35 38 40 42 44 46 47 48 50 50 51 51 51 50 50 50 50 52 56 59 61 63 65 68 71 74 76 78 80 82 83 82 82 80 78 77 77 74 72 70 69 68 68 69 70 73 75 77 78 80 82 85 87 89 90 92 93 94
38 41 43 46 47 48 48 48 48 48 48 48 46 42 36 33 31 29 28 28 26 25 25 25 25 26 27 27 29 31 32 35 37 38 40 42 43 44 45 46 46 47 47 48 49 50 50 52 58 62 64 67 69 72 75 77 79 80 81 81 79 78 77 77 76 74 72 68 64 63 65 67 70 72 74 76 78 79 82 84 87 88 90 91 92 93 94 95
40 43 45 47 48 48 48 48 49 49 49 48 46 41 35 32 31 29 29 28 28 27 26 26 26 26 27 27 28 29 30 32 34 36 37 39 40 41 42 43 45 46 47 49 51 52 53 54 59 65 69 70 73 74 77 79 79 78 78 77 76 76 75 73 71 68 66 64 63 64 67 71 73 76 78 79 81 83 86 87 89 90 91 92 93 94 96 98
43 45 47 48 48 48 49 49 49 49 49 47 44 40 35 32 30 29 28 28 27 27 27 27 27 27 27 28 28 29 30 31 33 35 36 38 39 41 42 44 46 48 50 52 54 56 58 58 62 67 71 72 74 75 75 75 74 74 74 74 73 71 69 66 65 65 66 66 67 68 69 73 77 80 82 83 84 86 87 88 90 91 92 94 96 98 100 102
45 47 48 48 48 49 49 49 50 49 48 46 41 38 35 32 31 29 28 28 27 27 27 28 28 28 28 29 30 31 31 32 34 36 37 39 41 44 46 47 50 52 54 56 58 60 61 62 64 68 70 71 71 70 70 70 70 71 70 68 66 64 63 63 65 68 70 71 73 73 73 76 80 83 83 84 86 87 89 90 92 94 96 98 100 102 103 106
46 48 49 48 48 49 49 50 50 49 46 42 39 36 34 33 31 30 29 28 28 28 27 28 29 29 30 31 32 33 34 35 37 39 41 43 45 46 48 51 53 54 56 58 60 61 61 62 63 65 67 67 67 67 66 66 65 64 62 61 61 62 64 66 67 70 74 76 78 78 76 76 80 82 84 86 88 89 91 93 96 98 99 101 104 105 107 109
48 49 49 48 49 49 49 49 49 46 42 39 36 34 33 32 32 31 30 29 29 29 29 29 30 31 32 33 35 36 38 39 40 42 44 45 47 49 50 52 54 55 56 57 59 59 60 60 60 61 63 64 64 63 61 59 58 58 59 61 63 65 68 70 71 73 75 77 80 80 79 79 81 84 86 89 91 93 95 97 100 102 104 106 108 109 111 113
49 49 49 49 49 49 49 48 46 42 38 36 34 33 32 32 31 31 30 30 30 30 30 31 32 33 34 36 37 39 41 42 43 44 46 47 48 50 50 52 53 54 55 56 57 58 58 58 58 59 60 60 58 55 54 54 57 60 62 64 67 70 72 73 74 75 76 77 80 82 82 83 85 88 90 93 95 97 99 102 104 106 108 110 112 114 116 117
49 49 49 49 49 49 48 45 41 38 35 34 33 32 31 30 30 30 30 30 30 31 31 32 33 34 35 37 38 40 41 43 44 45 46 47 48 49 50 51 52 53 54 55 55 56 56 55 53 51 50 51 51 52 54 57 61 64 66 68 70 72 73 74 74 76 77 78 82 85 87 88 90 93 95 97 99 101 104 106 109 111 113 114 116 117 119 120
48 48 49 49 49 48 45 41 37 34 33 31 31 30 30 30 30 30 30 30 31 31 32 33 34 35 36 37 38 39 41 42 43 44 46 47 48 49 50 51 51 52 52 52 52 51 50 49 48 47 47 47 49 53 56 59 63 67 68 69 70 71 73 74 75 77 79 81 85 89 91 92 95 97 99 101 104 106 109 111 113 115 117 118 119 120 122 122
48 48 49 49 47 43 39 35 33 31 30 29 28 28 28 29 29 30 30 30 31 32 33 34 35 35 37 38 39 40 41 42 43 45 46 47 47 48 49 49 49 48 47 46 44 44 45 46 48 51 53 53 54 57 60 62 64 66 67 69 71 73 75 77 78 81 83 85 88 92 96 97 100 102 104 106 109 111 114 116 117 119 120 121 122 122 122 122
48 48 48 46 42 38 34 31 30 28 28 27 27 27 27 28 29 29 30 31 32 32 33 35 36 37 38 39 40 41 43 44 44 45 46 46 47 46 45 44 43 41 40 40 41 43 46 50 53 56 59 59 58 60 62 63 64 66 67 70 73 75 77 80 83 85 88 90 92 95 98 101 104 106 108 110 112 114 116 118 119 120 120 120 120 120 119 118
48 47 44 40 36 33 31 29 28 27 27 27 28 28 28 29 30 31 32 33 34 35 35 36 38 39 40 41 42 43 43 44 44 44 44 43 42 41 39 39 38 39 41 43 45 48 50 53 55 58 61 61 60 61 63 65 67 69 70 73 75 78 80 83 87 89 92 95 97 99 101 104 106 109 111 113 114 115 116 117 117 118 118 117 117 116 115 115
46 43 39 34 31 29 28 27 27 27 28 28 29 30 30 31 33 33 34 35 36 37 37 38 39 40 40 41 41 41 41 41 40 39 38 37 36 37 38 39 41 43 46 47 50 51 52 53 54 56 60 62 62 64 66 68 70 72 74 76 78 81 84 86 90 93 95 98 100 102 104 106 109 111 112 114 115 115 115 115 115 115 115 114 114 113 113 113
42 37 33 29 27 26 26 27 27 28 29 30 31 32 32 33 34 35 36 36 37 37 38 38 38 38 38 38 38 37 36 35 34 33 34 35 37 38 41 43 45 47 49 49 50 51 52 53 54 56 60 64 65 67 69 71 73 76 78 80 82 84 86 89 92 95 97 99 102 104 106 108 110 112 113 113 114 114 113 113 112 112 111 111 111 111 112 112
35 31 28 27 26 26 27 28 28 29 30 31 32 33 34 34 35 35 36 36 36 36 36 36 36 36 35 34 33 32 32 32 32 33 35 38 40 42 44 45 46 47 48 49 51 52 54 55 57 58 61 65 67 69 72 74 76 78 81 83 84 86 89 92 94 97 100 102 104 106 107 108 109 110 110 110 110 110 109 110 110 109 109 110 110 110 110 110
29 27 25 25 26 27 28 29 30 31 32 32 33 33 34 34 34 34 34 34 34 34 33 33 32 32 31 31 31 32 33 34 36 38 40 41 42 43 44 46 47 48 50 51 53 55 57 59 61 62 64 67 69 70 72 74 77 80 82 84 86 88 91 94 96 100 103 105 106 106 106 107 106 106 106 106 107 107 107 108 108 108 107 108 108 109 109 109
Wind_Direction
211 214 214 213 213 213 214 213 213 215 217 220 221 222 224 226 227 228 228 227 227 227 229 230 232 233 235 237 239 241 242 242 242 243 244 246 247 247 247 249 250 251 252 253 254 257 259 260 260 261 262 264 266 267 268 269 269 269 270 271 272 272 273 274 274 275 276 277 278 279 281 281 282 283 284 284 285 286 286 287 287 287 287 287 287 287 287 287
213 215 217 216 216 216 216 217 216 216 217 220 222 224 225 226 228 230 232 232 233 234 234 235 236 236 237 240 242 243 245 246 246 247 248 249 249 249 249 249 249 249 250 252 255 257 259 260 261 263 264 266 267 268 268 269 269 270 270 271 272 273 274 275 276 277 278 279 279 280 281 282 283 284 285 286 287 287 287 288 288 288 288 288 288 288 288 288
215 217 218 219 219 219 219 220 220 220 219 220 222 224 225 226 227 228 230 232 234 236 237 239 239 239 238 239 239 240 242 245 247 248 250 251 251 251 250 250 250 250 251 253 255 256 258 259 261 263 264 265 266 267 268 269 270 271 272 272 273 274 275 276 277 278 279 280 281 282 284 284 285 286 287 287 288 288 288 288 288 288 288 288 288 288 288 288
216 218 220 221 221 222 222 223 223 223 223 222 223 224 226 228 229 228 229 230 232 234 236 239 240 241 241 241 241 241 242 243 245 247 248 250 250 251 251 252 252 253 254 255 256 258 259 260 262 263 265 266 267 268 269 270 271 273 274 274 275 276 276 277 278 280 281 282 284 285 286 287 287 288 288 288 289 289 289 289 288 288 288 287 287 288 288 288
217 219 221 222 224 224 225 225 226 227 227 226 226 226 227 228 230 232 232 233 233 234 236 237 239 241 242 243 244 245 246 247 248 249 250 251 252 253 253 254 255 257 258 259 260 261 262 264 265 266 267 269 270 271 272 273 274 275 275 276 276 277 278 279 280 282 283 284 285 286 287 287 288 289 289 289 290 290 289 289 288 288 288 288 288 289 289 289
218 220 222 224 225 226 227 228 229 230 230 231 230 230 230 230 231 233 235 236 236 236 237 239 240 241 243 244 245 246 248 250 251 253 254 255 256 256 257 258 259 260 261 262 263 264 265 266 267 268 269 270 271 272 273 273 274 275 275 276 277 278 280 281 282 284 285 285 286 287 288 288 289 289 290 290 290 289 288 288 288 288 288 289 290 290 290 291
218 221 223 225 226 228 229 231 231 232 233 234 234 234 233 233 234 234 235 237 238 239 239 240 241 243 244 245 246 247 249 250 252 254 256 257 257 258 259 260 261 262 263 264 264 265 266 267 268 269 270 271 271 272 273 274 275 276 277 278 280 281 282 283 284 285 286 287 287 288 288 289 290 290 290 290 289 288 287 287 288 288 289 290 290 291 291 292
219 221 223 226 228 229 231 233 234 235 236 237 237 238 237 237 237 237 238 238 240 240 241 242 243 244 245 246 247 248 249 250 252 253 255 256 257 258 259 260 261 262 263 264 265 266 266 267 268 269 270 271 272 273 274 275 277 278 279 281 282 283 284 285 286 287 287 288 288 289 289 290 290 290 289 289 289 288 288 288 289 290 290 291 292 292 292 293
221 222 224 226 229 231 232 234 236 237 238 239 240 241 241 242 242 242 241 241 241 242 243 244 244 245 246 247 248 248 249 250 251 252 253 255 256 257 259 259 260 261 263 264 265 266 267 267 268 269 270 271 273 274 276 277 279 280 281 282 283 285 286 286 287 288 288 289 290 290 290 290 290 290 289 289 289 289 290 291 292 292 292 293 294 294 295 295
222 224 226 227 229 232 234 236 238 239 241 242 243 244 244 245 246 246 246 245 245 245 245 246 246 247 248 249 250 250 251 251 251 252 253 254 255 257 258 259 260 261 263 264 265 266 267 268 269 270 272 273 274 276 277 279 280 281 282 283 284 285 286 287 288 289 290 290 291 291 291 291 290 290 289 289 290 290 292 293 294 294 295 296 296 296 296 296
224 226 228 230 231 233 235 237 239 241 243 244 246 247 248 248 249 249 249 249 249 249 249 249 249 250 250 250 251 252 253 253 254 254 255 255 256 258 259 260 261 262 264 265 266 267 269 270 271 272 273 275 276 277 278 279 281 281 282 284 285 286 287 287 288 289 290 291 292 292 292 291 291 290 290 291 292 293 294 295 295 295 296 297 297 298 298 297
225 228 230 232 234 236 238 239 240 242 244 246 247 249 250 251 251 252 252 253 253 252 252 252 252 253 253 252 252 253 254 255 256 257 257 258 258 259 260 261 262 264 265 266 267 268 269 271 272 273 274 276 277 278 279 280 281 282 283 284 286 286 287 288 289 290 291 292 292 292 293 292 292 292 292 293 294 294 295 296 295 295 297 298 298 299 298 297
227 230 233 236 237 238 239 241 243 245 246 247 248 249 251 252 253 254 255 255 256 256 256 255 255 255 255 255 255 255 255 255 256 258 259 259 260 260 261 262 263 264 265 267 268 269 270 272 273 274 275 276 277 278 279 280 281 282 284 285 286 287 288 289 290 291 292 292 292 292 293 293 293 293 293 294 294 294 296 296 296 296 297 298 298 298 297 297
230 233 236 238 240 242 243 245 246 247 248 249 249 250 252 253 254 255 256 257 257 258 258 258 258 258 258 258 257 257 257 257 257 258 259 260 260 261 262 263 264 265 266 267 269 270 271 272 273 274 275 276 277 278 279 280 281 283 284 286 287 288 289 289 291 292 292 291 290 290 293 294 294 294 294 294 294 294 295 296 296 296 297 298 297 297 297 298
229 233 237 240 244 246 248 249 250 250 251 252 253 253 254 254 255 256 256 257 258 259 259 259 260 260 260 260 259 259 258 258 258 258 258 259 260 261 262 263 264 265 266 268 269 270 271 272 273 274 275 276 277 278 278 280 281 283 284 286 286 287 289 290 291 292 291 290 289 290 294 295 295 295 295 294 294 295 295 296 296 297 297 297 297 297 298 299
230 235 240 245 248 250 252 254 256 257 258 259 260 260 261 261 260 260 260 260 261 262 261 261 261 262 261 261 260 259 258 258 257 257 257 258 259 260 261 262 263 264 265 266 267 269 270 271 272 273 274 275 276 277 278 280 282 283 284 285 286 287 288 289 291 292 290 289 289 291 295 295 295 295 294 294 294 295 295 295 296 296 296 296 296 296 297 298
233 239 244 248 251 254 257 260 263 265 267 268 268 269 269 269 269 269 268 268 268 268 267 266 265 265 265 263 261 260 258 256 256 256 256 256 257 258 259 260 261 262 263 264 265 266 268 269 270 272 273 274 276 277 279 280 282 283 283 284 286 286 287 289 291 291 289 288 290 292 295 294 293 293 293 293 294 294 294 294 294 294 295 295 295 295 296 297
236 241 245 250 255 259 264 268 271 273 274 275 275 275 274 274 274 273 273 273 272 272 272 272 271 270 269 267 265 262 259 256 254 254 255 255 256 256 258 258 260 261 261 263 264 265 266 267 269 270 272 273 275 277 279 280 281 280 280 282 284 285 286 289 290 289 288 289 292 293 294 293 292 292 292 293 293 293 294 294 294 294 294 294 294 295 297 298
235 241 248 255 262 267 271 274 276 278 278 278 278 277 276 275 274 273 273 273 273 274 275 276 275 275 274 272 269 266 261 257 254 253 253 254 255 256 257 258 258 260 260 261 262 264 265 266 268 269 271 272 274 276 278 278 277 277 278 279 282 284 287 290 291 290 291 292 293 293 293 292 291 292 292 292 292 294 295 295 295 295 294 294 295 296 297 298
237 246 255 263 269 273 275 277 279 280 281 281 282 281 280 279 277 275 274 273 273 274 276 277 278 278 278 277 274 270 265 259 255 254 253 253 254 255 255 256 257 258 259 260 261 263 264 265 267 268 270 272 273 274 274 274 274 276 278 281 283 285 288 290 291 291 292 292 292 292 293 292 291 292 292 292 293 294 295 295 294 294 294 294 296 297 298 298
242 251 261 268 273 276 279 280 281 282 283 283 284 284 284 283 282 280 278 275 274 274 274 275 277 278 278 278 276 273 268 263 259 255 252 252 252 252 253 253 254 255 257 258 260 261 262 264 265 267 269 270 271 272 274 275 277 279 281 282 284 286 288 289 289 288 289 290 290 291 292 292 291 292 292 292 293 294 294 294 294 294 295 296 297 297 298 298
249 258 266 273 279 282 283 284 284 284 283 284 284 284 284 283 282 281 280 277 275 274 274 273 274 276 276 276 275 273 270 265 261 257 253 251 250 250 251 252 253 254 255 257 259 260 261 262 263 265 267 270 272 274 276 278 280 281 283 284 286 287 288 288 287 286 288 289 290 291 291 291 291 292 292 293 293 293 294 294 294 295 296 296 297 297 298 298
258 265 275 284 290 292 292 291 289 288 287 286 285 285 284 282 281 280 279 278 276 275 274 273 272 272 273 273 273 272 270 266 263 259 256 253 252 251 252 253 254 255 255 256 258 260 262 262 263 265 269 272 273 275 277 279 281 283 284 285 286 287 287 287 287 287 289 290 291 291 290 290 291 291 292 292 293 293 293 294 294 295 296 296 297 297 297 297
274 285 294 299 301 301 300 298 297 295 293 291 288 286 283 281 280 278 277 277 277 276 274 273 271 269 270 271 271 270 270 268 264 261 258 256 254 253 254 255 256 257 258 258 259 260 262 264 265 267 270 272 273 274 276 279 281 283 284 285 286 287 287 288 288 288 290 291 291 290 289 290 291 291 292 292 292 292 293 294 295 295 296 296 297 296 296 296
298 303 304 304 304 305 305 305 304 302 300 297 294 291 288 285 282 279 277 276 276 276 274 273 271 268 267 268 269 269 269 267 265 263 260 258 257 256 256 257 259 260 261 261 261 261 262 263 265 266 268 269 271 273 275 278 280 282 284 285 286 287 288 289 289 289 290 290 290 289 289 290 291 292 292 292 292 292 293 294 295 296 296 296 296 295 295 296
308 308 307 306 308 310 310 310 309 308 307 306 304 302 298 293 288 284 281 279 277 275 273 272 271 268 266 265 267 268 267 266 266 264 262 261 260 260 259 260 261 262 263 263 263 263 263 264 264 266 268 269 271 273 275 278 280 282 284 285 287 287 288 289 289 289 289 290 289 289 290 291 292 292 292 292 293 294 294 295 295 296 296 295 295 295 296 297
314 313 311 310 312 313 313 313 313 314 313 312 310 307 303 299 295 290 286 281 277 273 271 271 270 269 266 264 264 265 266 266 266 265 264 264 264 264 263 264 264 264 264 265 265 266 267 267 268 270 272 273 275 276 278 280 282 283 284 285 287 287 288 289 289 289 289 289 290 290 291 292 292 292 293 293 294 295 295 296 296 296 296 296 296 297 297 297
315 311 308 309 312 313 314 315 317 316 315 314 312 309 306 303 299 294 288 282 276 273 270 270 270 269 267 265 263 263 264 265 265 265 266 266 266 266 265 265 266 266 266 266 267 268 269 270 272 274 276 278 279 281 282 283 283 284 285 286 287 288 288 288 288 289 289 290 290 291 291 292 293 294 294 295 295 296 296 296 296 296 297 297 297 297 297 296
304 302 304 309 312 313 315 318 318 316 315 315 315 312 310 307 303 298 291 284 278 273 270 268 268 268 267 266 264 262 262 264 265 266 266 267 267 267 267 267 267 267 268 269 269 271 272 273 275 276 278 280 281 283 284 284 285 285 286 287 287 287 287 287 288 289 290 290 290 290 291 293 294 295 295 296 296 296 296 297 297 297 297 298 298 297 296 296
297 303 308 311 313 315 318 318 318 317 316 318 317 315 314 311 306 301 296 290 284 277 271 267 266 266 266 266 266 264 263 263 264 266 267 267 268 268 268 269 269 269 270 272 273 274 275 276 277 278 279 281 282 284 284 285 286 286 286 286 286 287 287 288 289 290 290 290 291 292 293 294 295 296 296 296 297 297 297 297 297 297 297 297 297 296 296 296
302 307 310 313 315 317 319 319 318 318 318 320 320 319 317 314 309 305 300 295 289 282 276 269 266 266 266 266 266 267 267 267 267 267 268 268 269 269 270 270 271 271 272 273 274 275 276 278 279 280 281 282 283 284 284 285 285 285 286 286 286 287 288 289 289 290 291 292 293 294 295 295 296 296 296 296 296 296 296 296 296 296 296 296 296 295 295 295
305 309 312 315 317 318 319 319 319 320 320 321 321 320 319 315 311 308 303 298 293 287 281 273 268 266 265 265 266 267 268 269 269 269 269 269 269 270 271 271 272 273 273 274 276 277 278 279 280 281 281 282 283 283 284 284 284 285 286 287 287 288 288 289 290 291 292 293 294 295 295 295 296 296 296 296 295 295 295 295 294 294 294 295 294 294 294 294
306 310 313 316 317 318 319 319 320 321 321 322 322 322 320 316 311 308 304 300 295 290 285 278 273 269 266 266 266 266 267 268 269 269 270 270 271 271 272 272 273 274 275 276 278 279 280 280 281 281 282 282 283 283 284 284 285 287 287 288 288 289 289 290 291 292 293 293 294 294 295 295 296 296 296 295 295 294 294 294 294 294 294 294 294 294 294 295
309 312 313 315 317 318 319 319 320 322 322 322 323 324 322 318 313 309 306 302 297 292 288 283 279 275 271 268 266 266 267 267 268 269 270 271 272 272 273 274 274 275 276 277 278 279 280 282 282 283 283 283 284 284 285 286 287 287 288 288 289 290 291 292 292 293 293 294 295 295 296 296 296 296 295 295 295 295 295 295 296 295 295 294 295 295 296 296
309 311 313 315 317 318 319 319 320 322 322 322 324 325 322 318 314 309 306 303 299 295 290 286 283 280 277 274 271 269 268 269 269 269 270 271 272 273 273 274 275 276 277 278 279 280 281 281 282 282 283 283 285 286 286 287 287 288 288 289 290 291 293 293 294 295 295 296 296 296 296 296 296 296 295 295 295 296 296 296 296 295 295 296 297 297 297 297
308 310 312 315 317 317 318 319 320 322 322 322 323 325 322 318 314 310 305 301 298 295 292 288 285 282 280 277 275 274 272 271 271 271 271 272 273 273 274 275 276 277 278 278 279 279 279 281 282 283 284 285 286 286 287 288 289 289 290 291 292 293 294 295 296 297 297 297 298 297 296 296 295 295 295 295 295 296 296 296 296 297 297 297 297 297 297 297
307 310 312 314 316 316 318 319 320 322 322 322 322 323 321 317 314 310 306 303 299 296 293 290 288 285 283 280 278 277 276 275 275 274 275 275 275 276 277 277 278 278 278 278 279 279 281 283 285 285 286 287 287 288 289 290 291 292 293 294 294 295 296 297 297 297 298 298 298 297 296 296 296 295 295 296 297 297 297 297 297 297 297 297 297 298 298 298
308 310 313 314 315 316 317 319 320 321 321 321 321 321 319 316 313 310 307 304 302 299 296 293 290 288 286 284 283 281 280 280 279 279 279 279 279 279 279 279 279 280 281 282 283 284 285 285 285 286 287 288 289 290 291 292 293 294 295 296 296 297 298 298 298 298 297 297 297 297 297 297 297 297 297 298 298 298 297 297 297 297 298 298 298 298 298 298
308 311 313 314 314 315 317 318 320 320 320 319 319 319 317 315 313 309 306 304 302 300 298 296 293 291 290 288 287 285 284 283 282 281 281 281 282 282 282 283 283 284 285 285 286 286 286 286 285 286 287 289 290 291 292 293 295 296 297 297 298 298 298 299 299 299 298 298 298 298 298 299 298 298 299 299 298 298 298 298 298 298 298 299 298 298 298 299
309 311 312 313 314 315 317 318 318 318 318 318 317 316 315 314 312 310 307 303 302 300 299 297 296 294 292 291 289 288 287 286 285 285 284 284 284 285 285 285 285 285 285 285 285 286 287 288 288 289 290 291 292 293 295 296 297 297 297 297 298 298 299 299 300 300 300 301 300 300 300 300 299 299 299 299 299 299 299 299 299 299 299 299 299 299 299 299
310 311 312 312 314 316 317 317 317 317 317 316 315 315 314 313 312 311 308 305 303 301 299 298 297 297 296 295 294 292 291 290 289 288 288 287 287 287 286 286 286 286 287 287 288 289 291 292 292 292 293 294 295 296 297 298 298 298 297 298 299 299 299 300 301 301 302 302 301 301 301 300 299 299 299 299 299 299 299 299 299 299 299 299 299 299 299 299
310 310 311 313 314 315 316 316 316 316 315 315 315 315 314 313 312 311 310 308 306 304 302 301 300 299 299 297 296 295 293 292 291 290 290 290 290 290 290 290 290 291 292 293 293 294 295 296 296 296 296 296 297 298 300 300 299 298 298 299 300 301 301 301 302 301 301 301 301 301 301 300 299 299 299 299 300 300 300 300 300 300 299 299 300 300 300 300
309 310 311 313 314 315 315 315 315 315 315 315 315 314 313 312 312 311 310 308 307 305 304 302 300 299 298 297 296 295 295 295 295 294 294 294 294 294 295 295 295 296 296 297 297 298 298 298 298 299 299 299 300 301 302 301 300 300 301 302 302 302 302 302 303 303 303 303 302 302 301 301 301 301 301 301 301 301 300 300 300 300 300 301 301 301 301 301
309 310 312 313 314 315 315 315 315 315 315 316 315 314 313 313 312 311 310 309 308 307 305 304 302 301 300 299 299 298 298 298 298 298 298 298 298 298 299 299 299 299 299 300 300 300 300 300 300 300 299 300 302 304 304 303 303 302 303 303 303 303 303 304 304 304 304 303 303 302 302 302 302 302 301 301 301 301 301 301 301 301 301 301 301 301 301 301
310 311 313 314 315 315 315 315 315 316 316 316 315 315 314 314 314 313 313 313 311 310 309 308 307 306 305 304 303 302 301 301 300 300 300 301 301 300 301 301 301 301 302 302 303 303 303 303 303 302 301 301 302 303 302 302 302 302 303 304 304 305 305 304 304 304 303 303 303 302 302 302 302 302 302 302 302 302 302 302 302 302 302 302 302 302 303 303
311 313 314 314 315 315 315 315 316 317 317 317 316 316 315 315 316 316 315 315 314 313 312 311 310 308 307 306 305 304 303 303 303 303 302 302 302 302 303 303 304 304 305 306 306 306 307 307 307 306 305 305 305 304 304 304 304 305 305 306 305 305 305 304 304 304 304 303 302 302 302 303 303 303 304 304 304 303 303 303 303 303 303 303 304 303 303 303
312 313 314 314 315 315 316 318 318 319 318 318 317 317 317 317 317 316 316 315 314 313 312 311 310 309 308 307 307 306 306 306 306 306 305 305 305 306 306 307 308 309 310 310 309 309 309 309 309 309 308 309 310 309 308 308 307 306 306 306 306 305 305 305 305 304 304 303 303 303 304 304 304 304 304 304 303 303 303 303 303 303 303 303 303 302 302 302
313 314 314 315 316 317 319 320 321 321 320 319 318 318 319 318 318 317 317 316 315 314 313 312 311 311 310 310 309 309 308 308 308 308 309 310 311 312 312 313 313 313 313 312 311 311 312 312 312 312 311 311 312 311 310 309 308 308 307 307 306 306 306 305 305 305 305 305 305 304 304 304 304 303 303 303 302 302 302 302 302 301 302 302 302 302 302 302
314 314 315 316 318 320 321 321 321 320 319 319 319 320 320 319 319 318 317 317 316 315 315 314 313 312 312 311 311 311 311 311 312 314 315 316 316 317 316 316 315 315 315 314 314 314 314 314 314 313 312 312 313 312 311 310 309 308 308 307 307 307 307 307 306 306 305 304 304 304 304 303 303 302 302 302 302 302 302 302 302 302 302 302 302 302 302 302
314 315 317 318 320 322 322 321 320 320 319 320 321 321 321 320 319 319 318 318 317 316 315 315 314 314 314 314 314 314 315 316 317 319 319 319 318 318 317 317 317 317 317 316 316 316 315 315 314 314 313 312 313 312 311 311 310 309 309 309 309 308 307 306 305 305 304 303 303 303 302 302 302 302 302 302 302 302 302 302 302 303 303 303 303 303 303 303
315 316 318 320 322 322 321 320 320 320 320 321 321 321 320 320 319 319 319 318 317 317 317 317 317 318 318 319 320 320 321 321 321 321 320 319 319 319 318 318 318 318 318 318 317 316 316 315 314 314 313 313 313 313 313 312 311 310 309 308 308 307 306 305 304 304 303 302 302 302 302 302 302 302 303 303 303 303 303 303 303 303 304 304 303 303 303 303
316 318 320 321 321 321 320 320 320 321 321 321 321 321 320 320 320 320 320 320 320 321 322 323 324 325 325 326 326 325 325 324 323 322 322 321 320 321 321 321 321 320 319 318 317 316 316 316 316 316 316 315 315 314 313 311 309 308 307 307 306 306 305 305 304 303 303 302 302 302 302 303 303 303 303 304 304 304 304 304 304 304 304 304 303 303 302 302
Height
10744 10747 10749 10752 10754 10756 10758 10760 10761 10763 10764 10765 10766 10767 10768 10769 10769 10770 10771 10771 10772 10772 10772 10773 10773 10773 10773 10774 10774 10774 10774 10775 10775 10775 10775 10775 10775 10775 10775 10775 10775 10775 10775 10775 10774 10774 10774 10774 10773 10773 10772 10772 10771 10770 10769 10768 10768 10766 10765 10763 10762 10761 10759 10757 10756 10754 10753 10751 10749 10747 10745 10743 10742 10740 10737 10735 10732 10729 10725 10722 10719 10716 10712 10708 10704 10701 10697 10693
10742 10744 10747 10749 10751 10753 10755 10757 10759 10761 10762 10763 10764 10765 10766 10766 10767 10768 10768 10768 10769 10769 10769 10770 10770 10770 10771 10771 10771 10771 10771 10772 10772 10772 10772 10772 10772 10772 10772 10772 10771 10771 10771 10770 10770 10770 10769 10769 10769 10768 10768 10767 10766 10765 10764 10763 10763 10761 10760 10758 10756 10755 10753 10751 10749 10747 10745 10744 10742 10741 10739 10736 10735 10733 10730 10727 10725 10721 10717 10714 10710 10707 10704 10700 10696 10692 10688 10684
10739 10742 10744 10746 10748 10750 10752 10754 10756 10757 10759 10760 10761 10762 10762 10763 10764 10764 10765 10765 10766 10766 10766 10766 10767 10767 10767 10768 10768 10768 10768 10768 10768 10768 10769 10769 10769 10769 10769 10768 10768 10767 10767 10766 10766 10765 10765 10764 10764 10763 10763 10762 10761 10761 10759 10758 10757 10756 10754 10753 10751 10750 10748 10745 10743 10740 10738 10736 10735 10733 10731 10729 10727 10726 10723 10719 10717 10714 10709 10706 10702 10699 10696 10692 10688 10684 10680 10677
10736 10739 10741 10743 10745 10747 10749 10751 10752 10754 10755 10757 10758 10758 10759 10760 10761 10761 10762 10762 10762 10763 10763 10763 10763 10763 10764 10764 10765 10764 10764 10764 10764 10764 10765 10765 10765 10765 10765 10764 10764 10763 10763 10762 10762 10761 10760 10760 10759 10758 10758 10757 10756 10755 10754 10753 10752 10750 10748 10747 10745 10744 10742 10740 10737 10734 10732 10729 10728 10726 10724 10721 10719 10718 10715 10712 10710 10706 10701 10697 10694 10690 10688 10685 10681 10677 10673 10669
10734 10736 10738 10740 10742 10744 10746 10747 10749 10750 10752 10753 10754 10755 10756 10757 10757 10758 10758 10758 10759 10759 10759 10759 10759 10759 10760 10760 10760 10761 10760 10760 10760 10760 10760 10761 10761 10761 10761 10760 10760 10759 10759 10758 10757 10757 10756 10755 10754 10753 10752 10752 10751 10750 10748 10747 10746 10744 10742 10741 10739 10737 10735 10733 10731 10729 10725 10723 10721 10719 10717 10714 10712 10710 10707 10704 10702 10698 10693 10689 10686 10682 10679 10677 10674 10670 10665 10661
10732 10734 10736 10738 10740 10741 10743 10744 10746 10747 10748 10750 10751 10752 10753 10753 10754 10754 10755 10755 10755 10755 10755 10755 10755 10755 10755 10756 10756 10756 10756 10756 10756 10756 10756 10756 10756 10756 10756 10755 10755 10755 10754 10753 10753 10752 10751 10750 10749 10748 10747 10746 10745 10744 10742 10741 10740 10738 10736 10734 10732 10730 10729 10726 10725 10722 10719 10716 10714 10712 10710 10707 10705 10702 10699 10697 10695 10691 10686 10682 10679 10674 10671 10669 10666 10662 10658 10653
10730 10732 10734 10736 10737 10738 10740 10741 10743 10744 10745 10746 10747 10748 10749 10750 10750 10751 10751 10751 10751 10751 10751 10751 10751 10751 10751 10751 10752 10752 10752 10751 10751 10751 10751 10751 10751 10751 10751 10751 10751 10750 10749 10748 10748 10747 10746 10745 10744 10743 10742 10741 10739 10738 10736 10734 10733 10732 10730 10727 10725 10723 10721 10719 10717 10715 10712 10709 10707 10705 10703 10700 10697 10694 10691 10689 10687 10684 10680 10676 10673 10668 10664 10661 10659 10656 10652 10648
10728 10730 10732 10733 10734 10736 10737 10739 10740 10741 10742 10743 10744 10745 10745 10746 10747 10747 10747 10748 10748 10747 10747 10747 10747 10746 10746 10746 10747 10747 10747 10747 10747 10747 10746 10746 10746 10746 10746 10746 10746 10745 10744 10743 10742 10741 10741 10740 10739 10738 10737 10735 10734 10732 10730 10729 10727 10725 10723 10721 10718 10716 10714 10712 10710 10708 10705 10701 10699 10697 10695 10693 10690 10687 10684 10682 10679 10676 10673 10670 10666 10662 10658 10654 10652 10649 10646 10642
10727 10728 10730 10731 10732 10734 10735 10736 10737 10738 10739 10740 10740 10741 10742 10743 10743 10743 10743 10743 10743 10743 10743 10743 10742 10742 10742 10741 10742 10742 10742 10742 10742 10741 10742 10742 10741 10741 10741 10741 10741 10740 10739 10738 10737 10736 10735 10734 10734 10733 10731 10730 10728 10726 10724 10723 10720 10718 10716 10714 10712 10710 10707 10705 10703 10700 10697 10694 10690 10688 10687 10685 10682 10679 10677 10675 10672 10669 10665 10662 10658 10653 10650 10647 10644 10641 10639 10635
10725 10726 10727 10729 10730 10731 10732 10733 10734 10735 10736 10736 10737 10738 10739 10739 10739 10738 10739 10739 10739 10739 10739 10738 10738 10737 10737 10737 10737 10737 10737 10737 10737 10737 10737 10737 10737 10736 10736 10736 10736 10735 10734 10733 10732 10731 10730 10729 10728 10727 10725 10724 10722 10720 10719 10717 10714 10712 10709 10708 10706 10704 10701 10698 10695 10693 10690 10687 10683 10679 10677 10677 10674 10671 10670 10668 10665 10662 10658 10655 10650 10644 10641 10639 10636 10633 10630 10627
10723 10724 10725 10727 10728 10729 10730 10731 10732 10732 10733 10734 10734 10735 10734 10734 10734 10734 10734 10734 10735 10735 10734 10734 10733 10733 10732 10732 10732 10732 10732 10733 10732 10732 10732 10732 10732 10731 10731 10731 10730 10730 10729 10728 10727 10726 10725 10723 10722 10721 10720 10718 10716 10714 10712 10710 10708 10705 10703 10701 10699 10697 10694 10691 10689 10686 10683 10680 10676 10671 10667 10667 10666 10663 10662 10661 10658 10654 10650 10647 10642 10636 10633 10630 10626 10624 10621 10617
10721 10722 10724 10725 10726 10727 10728 10728 10729 10730 10730 10731 10731 10731 10730 10730 10730 10730 10730 10730 10730 10729 10730 10730 10729 10728 10726 10726 10726 10726 10728 10728 10727 10727 10727 10727 10727 10726 10726 10725 10725 10724 10723 10722 10721 10720 10719 10717 10716 10715 10713 10712 10710 10708 10706 10704 10701 10699 10697 10695 10692 10690 10687 10684 10682 10679 10676 10673 10670 10666 10659 10657 10658 10655 10654 10654 10651 10645 10642 10639 10633 10628 10626 10622 10618 10615 10611 10606
10720 10721 10722 10723 10724 10724 10725 10726 10727 10727 10728 10728 10727 10727 10727 10727 10726 10726 10725 10725 10725 10724 10724 10724 10723 10721 10720 10719 10720 10720 10722 10722 10722 10722 10721 10721 10721 10720 10720 10719 10719 10718 10717 10716 10715 10714 10712 10711 10709 10708 10707 10705 10703 10701 10699 10698 10695 10693 10691 10689 10686 10683 10680 10677 10675 10672 10669 10666 10663 10660 10654 10648 10649 10649 10647 10648 10645 10638 10635 10630 10624 10621 10618 10614 10609 10606 10601 10596
10718 10719 10720 10721 10721 10722 10723 10724 10724 10724 10724 10724 10724 10724 10723 10723 10723 10722 10722 10721 10721 10720 10719 10718 10717 10715 10714 10713 10713 10714 10714 10715 10715 10715 10714 10714 10714 10714 10713 10713 10713 10712 10711 10710 10709 10708 10706 10704 10703 10701 10700 10698 10697 10695 10693 10691 10690 10688 10686 10683 10680 10677 10674 10670 10668 10665 10662 10660 10656 10654 10649 10640 10639 10641 10639 10640 10638 10632 10628 10622 10617 10614 10610 10605 10601 10597 10592 10588
10717 10717 10718 10719 10720 10720 10721 10721 10721 10721 10721 10721 10721 10720 10720 10719 10719 10718 10717 10717 10716 10715 10714 10713 10711 10709 10708 10707 10706 10706 10706 10706 10707 10707 10707 10707 10706 10706 10707 10707 10706 10705 10704 10703 10702 10701 10700 10698 10697 10695 10693 10692 10690 10688 10687 10685 10684 10682 10680 10677 10674 10672 10668 10664 10662 10660 10656 10653 10648 10646 10643 10634 10631 10632 10631 10631 10630 10624 10620 10615 10610 10606 10601 10596 10591 10587 10584 10580
10715 10716 10717 10718 10718 10718 10718 10718 10718 10718 10718 10718 10717 10717 10716 10715 10714 10714 10713 10712 10711 10709 10708 10707 10705 10703 10702 10700 10699 10698 10698 10698 10698 10698 10699 10699 10699 10699 10700 10700 10700 10699 10698 10697 10696 10695 10694 10692 10691 10689 10687 10685 10684 10682 10680 10679 10678 10676 10674 10671 10668 10666 10663 10659 10657 10655 10650 10647 10643 10638 10636 10628 10623 10624 10624 10623 10621 10616 10612 10609 10604 10599 10593 10587 10583 10579 10576 10572
10714 10715 10715 10716 10716 10716 10716 10716 10716 10716 10715 10715 10714 10713 10712 10711 10710 10709 10708 10707 10705 10704 10702 10701 10699 10698 10696 10694 10692 10691 10691 10690 10690 10690 10691 10692 10692 10692 10693 10693 10693 10693 10692 10691 10690 10689 10688 10686 10685 10683 10681 10679 10678 10676 10675 10673 10672 10670 10668 10665 10662 10659 10656 10654 10652 10649 10645 10641 10637 10633 10630 10622 10616 10617 10617 10616 10612 10607 10605 10602 10598 10592 10586 10581 10576 10572 10568 10564
10713 10714 10714 10714 10714 10714 10714 10714 10714 10713 10712 10711 10710 10709 10708 10707 10705 10704 10703 10701 10700 10698 10697 10695 10693 10692 10690 10688 10686 10685 10684 10684 10684 10684 10685 10685 10686 10686 10686 10687 10686 10686 10686 10685 10684 10683 10682 10680 10679 10677 10676 10674 10672 10671 10669 10667 10665 10663 10661 10659 10656 10652 10649 10647 10646 10643 10639 10636 10631 10627 10625 10617 10610 10609 10610 10609 10604 10598 10596 10593 10588 10583 10578 10574 10569 10564 10559 10554
10712 10712 10712 10713 10713 10713 10712 10712 10711 10711 10710 10709 10707 10706 10704 10703 10701 10700 10699 10697 10695 10693 10692 10690 10688 10687 10685 10683 10681 10680 10679 10678 10678 10679 10679 10680 10680 10680 10681 10681 10680 10680 10680 10679 10678 10677 10676 10674 10672 10672 10670 10668 10667 10665 10663 10660 10658 10656 10654 10652 10650 10647 10643 10640 10639 10636 10632 10630 10625 10620 10618 10612 10604 10601 10600 10600 10597 10591 10587 10582 10577 10573 10569 10565 10560 10555 10550 10545
10710 10711 10711 10711 10711 10711 10710 10710 10709 10708 10707 10705 10704 10702 10701 10699 10697 10696 10694 10693 10691 10689 10687 10685 10684 10682 10680 10678 10677 10676 10675 10674 10674 10674 10674 10675 10675 10675 10675 10675 10675 10674 10674 10673 10672 10671 10670 10668 10666 10666 10664 10663 10661 10658 10655 10653 10651 10650 10648 10646 10644 10641 10639 10634 10631 10628 10624 10622 10617 10612 10609 10604 10599 10595 10589 10588 10589 10584 10578 10572 10567 10564 10560 10556 10551 10546 10541 10536
10709 10710 10710 10710 10710 10709 10708 10708 10706 10705 10704 10702 10701 10699 10697 10695 10693 10692 10689 10688 10687 10685 10683 10682 10680 10678 10676 10675 10673 10672 10671 10671 10670 10670 10670 10670 10670 10670 10670 10670 10669 10669 10669 10667 10666 10665 10664 10662 10660 10660 10659 10656 10654 10651 10649 10648 10647 10645 10642 10640 10637 10635 10633 10629 10624 10621 10617 10615 10610 10605 10601 10595 10593 10589 10581 10578 10577 10574 10570 10564 10559 10554 10550 10546 10541 10536 10531 10526
10709 10709 10709 10708 10708 10707 10706 10705 10704 10703 10701 10699 10697 10695 10694 10692 10690 10687 10685 10683 10683 10681 10679 10678 10676 10674 10673 10671 10670 10669 10668 10668 10667 10666 10666 10666 10665 10665 10665 10664 10664 10663 10663 10662 10661 10659 10658 10657 10655 10654 10652 10650 10648 10646 10645 10643 10641 10638 10635 10634 10631 10628 10626 10622 10618 10614 10611 10608 10603 10597 10592 10587 10586 10583 10575 10569 10566 10562 10559 10555 10550 10546 10540 10535 10530 10525 10520 10514
10707 10707 10707 10706 10705 10704 10703 10702 10701 10700 10698 10696 10693 10691 10690 10687 10685 10683 10680 10677 10678 10677 10675 10673 10673 10671 10669 10668 10667 10666 10665 10664 10664 10663 10663 10662 10662 10661 10661 10660 10659 10658 10657 10657 10656 10654 10652 10651 10649 10648 10646 10644 10642 10641 10639 10637 10634 10631 10628 10626 10624 10621 10618 10615 10611 10607 10603 10600 10596 10589 10583 10580 10579 10576 10569 10563 10558 10553 10549 10545 10541 10537 10531 10525 10520 10514 10509 10503
10706 10705 10704 10704 10702 10701 10700 10699 10698 10696 10694 10691 10689 10687 10685 10683 10680 10678 10675 10672 10672 10672 10670 10668 10668 10667 10665 10664 10663 10662 10662 10661 10661 10660 10659 10659 10658 10658 10656 10655 10655 10653 10652 10652 10650 10649 10646 10645 10644 10643 10640 10638 10636 10634 10632 10631 10628 10624 10621 10619 10617 10613 10610 10607 10603 10599 10595 10591 10587 10580 10574 10573 10572 10567 10562 10556 10550 10545 10541 10537 10533 10527 10522 10516 10510 10504 10498 10494
10703 10703 10702 10701 10700 10698 10697 10695 10694 10692 10689 10686 10684 10682 10679 10677 10674 10671 10669 10667 10666 10666 10664 10663 10663 10662 10661 10659 10659 10659 10658 10657 10657 10656 10656 10655 10654 10653 10652 10651 10650 10649 10648 10647 10645 10643 10640 10639 10638 10636 10634 10631 10629 10627 10625 10624 10622 10618 10614 10612 10609 10605 10601 10598 10594 10591 10588 10583 10578 10570 10564 10565 10564 10558 10554 10548 10542 10537 10533 10528 10523 10517 10512 10506 10500 10494 10488 10484
10701 10700 10699 10698 10696 10695 10693 10691 10689 10687 10684 10681 10678 10676 10673 10670 10668 10666 10663 10661 10661 10659 10658 10657 10657 10657 10656 10655 10655 10655 10654 10653 10653 10653 10652 10651 10650 10649 10648 10647 10646 10645 10643 10642 10640 10637 10635 10633 10632 10629 10627 10625 10623 10621 10619 10617 10615 10612 10607 10604 10601 10597 10593 10590 10585 10582 10579 10576 10570 10561 10556 10556 10554 10550 10545 10539 10533 10528 10522 10517 10512 10506 10501 10495 10489 10483 10479 10474
10698 10697 10696 10694 10693 10691 10690 10688 10685 10682 10680 10677 10674 10671 10667 10664 10662 10659 10657 10655 10654 10653 10652 10651 10651 10651 10652 10651 10651 10650 10649 10649 10649 10648 10647 10647 10646 10645 10644 10643 10642 10641 10639 10638 10636 10633 10631 10629 10626 10624 10622 10620 10617 10615 10613 10610 10607 10604 10600 10596 10593 10589 10585 10581 10577 10573 10570 10567 10561 10553 10549 10546 10544 10540 10535 10530 10524 10517 10511 10505 10500 10494 10488 10483 10478 10473 10468 10463
10696 10695 10694 10692 10690 10688 10686 10684 10681 10678 10675 10673 10670 10666 10662 10659 10655 10653 10651 10648 10647 10647 10646 10646 10646 10646 10647 10646 10646 10646 10645 10645 10645 10644 10643 10643 10642 10641 10641 10639 10638 10637 10634 10633 10631 10628 10626 10624 10621 10619 10616 10614 10611 10609 10606 10603 10600 10596 10592 10589 10585 10581 10577 10573 10570 10565 10561 10559 10553 10545 10541 10538 10535 10530 10523 10518 10514 10506 10499 10493 10488 10482 10476 10471 10466 10461 10456 10451
10695 10693 10692 10690 10688 10685 10683 10680 10678 10675 10672 10669 10665 10661 10657 10653 10650 10647 10645 10643 10642 10641 10641 10641 10641 10641 10642 10642 10642 10642 10641 10641 10640 10639 10639 10638 10637 10637 10636 10634 10633 10631 10629 10628 10626 10623 10621 10618 10616 10613 10610 10607 10604 10601 10599 10595 10592 10588 10584 10580 10576 10573 10569 10565 10562 10557 10553 10550 10544 10537 10533 10529 10526 10521 10512 10506 10503 10495 10488 10482 10477 10471 10465 10460 10456 10450 10445 10439
10693 10691 10689 10687 10685 10682 10679 10677 10675 10672 10668 10665 10661 10656 10652 10648 10645 10643 10640 10639 10637 10637 10637 10637 10636 10636 10637 10637 10637 10637 10637 10637 10636 10635 10635 10634 10633 10632 10631 10629 10627 10626 10624 10622 10620 10618 10615 10612 10609 10606 10603 10600 10597 10594 10591 10588 10584 10580 10576 10571 10568 10564 10561 10558 10554 10548 10545 10541 10535 10530 10525 10519 10515 10511 10502 10495 10491 10485 10478 10472 10467 10462 10456 10451 10446 10441 10435 10430
10690 10688 10686 10684 10682 10679 10677 10674 10671 10668 10664 10661 10657 10653 10648 10644 10641 10639 10637 10635 10634 10633 10633 10632 10632 10632 10632 10633 10632 10632 10632 10632 10632 10631 10630 10629 10628 10627 10625 10624 10622 10620 10619 10616 10614 10611 10608 10605 10602 10599 10596 10593 10590 10587 10583 10580 10576 10572 10567 10563 10560 10556 10552 10551 10546 10540 10536 10532 10526 10520 10514 10508 10504 10499 10493 10486 10480 10475 10469 10464 10458 10453 10448 10444 10439 10432 10427 10422
10687 10685 10683 10681 10679 10676 10674 10671 10668 10664 10660 10657 10654 10650 10646 10641 10638 10636 10634 10632 10630 10630 10629 10628 10628 10628 10628 10628 10628 10628 10628 10627 10627 10626 10625 10624 10623 10621 10620 10618 10616 10614 10612 10610 10607 10605 10601 10598 10595 10592 10589 10585 10583 10579 10576 10572 10568 10564 10559 10554 10551 10548 10545 10543 10539 10533 10528 10523 10517 10511 10504 10499 10493 10487 10482 10476 10470 10465 10461 10456 10451 10446 10442 10437 10431 10425 10419 10414
10684 10682 10680 10678 10676 10673 10671 10668 10664 10661 10657 10653 10650 10646 10643 10639 10636 10633 10632 10630 10628 10627 10626 10625 10624 10624 10624 10624 10624 10623 10623 10622 10622 10621 10619 10618 10617 10616 10614 10612 10610 10608 10606 10604 10601 10598 10594 10591 10588 10585 10582 10578 10575 10572 10568 10564 10561 10557 10551 10546 10542 10537 10535 10535 10531 10525 10520 10514 10508 10501 10494 10490 10484 10478 10471 10464 10459 10456 10452 10448 10443 10438 10433 10427 10421 10415 10410 10404
10681 10680 10678 10675 10673 10670 10668 10664 10661 10657 10654 10650 10646 10643 10639 10636 10633 10631 10629 10628 10626 10624 10623 10622 10621 10620 10620 10620 10619 10618 10618 10618 10617 10616 10614 10613 10611 10610 10608 10606 10604 10602 10600 10598 10596 10593 10588 10584 10580 10577 10574 10571 10568 10564 10561 10557 10553 10549 10543 10539 10534 10528 10524 10523 10521 10516 10512 10507 10500 10492 10484 10479 10474 10469 10462 10454 10449 10445 10441 10437 10432 10427 10421 10415 10410 10405 10399 10393
10679 10677 10675 10672 10670 10667 10664 10661 10657 10654 10650 10646 10643 10640 10636 10633 10631 10629 10627 10625 10623 10622 10620 10619 10618 10617 10616 10616 10615 10614 10614 10613 10612 10611 10609 10607 10606 10604 10602 10600 10598 10596 10594 10592 10590 10588 10584 10579 10574 10571 10567 10564 10561 10557 10553 10549 10546 10542 10537 10531 10526 10521 10515 10511 10508 10504 10500 10498 10493 10484 10475 10469 10463 10459 10453 10445 10441 10436 10431 10427 10422 10416 10410 10404 10399 10394 10388 10382
10676 10674 10672 10669 10667 10664 10660 10657 10654 10651 10647 10643 10640 10637 10633 10630 10628 10626 10624 10622 10621 10619 10618 10616 10615 10614 10613 10612 10611 10610 10609 10608 10607 10605 10603 10602 10601 10598 10596 10594 10592 10590 10588 10586 10583 10582 10580 10574 10568 10564 10561 10558 10555 10551 10546 10541 10537 10533 10529 10523 10517 10512 10506 10502 10499 10494 10488 10487 10484 10476 10468 10461 10455 10451 10445 10438 10433 10428 10422 10417 10411 10405 10400 10394 10388 10383 10377 10371
10674 10671 10669 10666 10663 10660 10657 10654 10650 10647 10644 10640 10636 10634 10631 10628 10625 10623 10621 10620 10618 10616 10615 10613 10612 10611 10610 10609 10607 10606 10605 10603 10602 10600 10599 10597 10595 10593 10591 10589 10587 10584 10582 10580 10578 10576 10575 10571 10563 10557 10554 10551 10548 10544 10538 10533 10528 10523 10518 10513 10507 10503 10497 10492 10489 10485 10479 10477 10475 10468 10459 10453 10447 10441 10436 10431 10426 10420 10413 10407 10401 10395 10389 10383 10377 10371 10365 10359
10671 10669 10666 10663 10660 10657 10653 10650 10647 10644 10640 10637 10633 10630 10628 10625 10623 10621 10618 10617 10615 10613 10612 10610 10609 10607 10606 10605 10604 10603 10601 10599 10598 10596 10594 10592 10590 10588 10586 10583 10581 10579 10576 10574 10572 10569 10569 10568 10560 10551 10546 10543 10539 10535 10530 10524 10519 10514 10508 10502 10497 10493 10488 10483 10479 10475 10471 10468 10466 10461 10453 10445 10438 10431 10426 10423 10417 10410 10403 10397 10391 10385 10378 10372 10366 10360 10353 10346
10668 10665 10663 10659 10656 10653 10650 10647 10644 10640 10637 10633 10630 10627 10624 10622 10620 10618 10616 10614 10612 10610 10609 10607 10606 10604 10602 10601 10600 10598 10597 10596 10593 10592 10590 10587 10585 10582 10580 10578 10576 10573 10571 10568 10566 10563 10561 10560 10556 10546 10539 10536 10532 10527 10523 10517 10511 10506 10499 10493 10488 10483 10479 10474 10470 10464 10461 10458 10455 10453 10448 10438 10429 10422 10416 10412 10406 10399 10393 10386 10380 10374 10367 10361 10355 10348 10340 10334
10665 10662 10659 10656 10653 10650 10647 10643 10640 10637 10633 10630 10627 10624 10621 10619 10617 10615 10613 10611 10609 10608 10606 10604 10602 10601 10599 10598 10596 10594 10593 10591 10589 10587 10585 10582 10580 10577 10575 10573 10570 10568 10565 10562 10559 10556 10553 10551 10548 10540 10532 10528 10524 10520 10515 10510 10504 10497 10491 10485 10481 10476 10471 10468 10463 10456 10450 10447 10442 10440 10440 10432 10419 10412 10407 10401 10395 10389 10382 10376 10369 10363 10356 10349 10342 10335 10328 10321
10662 10659 10656 10653 10650 10646 10643 10640 10636 10633 10630 10626 10623 10621 10618 10616 10614 10612 10610 10609 10607 10605 10603 10601 10599 10598 10596 10594 10592 10590 10588 10587 10584 10582 10580 10577 10575 10572 10570 10567 10564 10561 10559 10556 10552 10549 10546 10543 10539 10533 10526 10519 10515 10511 10507 10502 10496 10489 10483 10479 10474 10470 10465 10461 10458 10450 10442 10437 10430 10427 10429 10424 10412 10404 10398 10391 10384 10378 10371 10364 10357 10351 10344 10336 10329 10322 10314 10307
10658 10656 10652 10649 10646 10643 10639 10636 10632 10629 10626 10623 10620 10618 10615 10613 10611 10609 10607 10605 10603 10601 10600 10598 10596 10594 10592 10590 10588 10585 10583 10581 10579 10577 10575 10572 10570 10567 10565 10561 10558 10555 10551 10548 10544 10541 10538 10535 10531 10525 10518 10512 10508 10504 10500 10494 10488 10482 10477 10473 10468 10463 10457 10453 10450 10444 10436 10429 10421 10415 10415 10412 10403 10395 10388 10381 10374 10366 10359 10352 10344 10336 10329 10322 10315 10308 10300 10291
10655 10652 10649 10646 10643 10639 10636 10632 10628 10625 10622 10620 10617 10615 10613 10610 10608 10606 10604 10602 10600 10598 10596 10594 10592 10590 10588 10586 10584 10581 10579 10576 10574 10572 10569 10567 10564 10561 10558 10555 10552 10548 10545 10541 10537 10533 10530 10527 10523 10518 10510 10504 10500 10498 10494 10488 10481 10475 10471 10467 10461 10455 10449 10444 10439 10435 10429 10421 10411 10404 10401 10397 10391 10383 10375 10369 10362 10353 10346 10339 10330 10322 10314 10307 10300 10292 10283 10275
10652 10649 10645 10642 10638 10635 10632 10628 10625 10622 10619 10616 10614 10612 10610 10608 10606 10603 10601 10599 10597 10595 10593 10591 10589 10587 10585 10582 10580 10577 10575 10572 10569 10567 10564 10561 10558 10555 10552 10549 10545 10542 10538 10535 10531 10526 10522 10519 10516 10513 10507 10501 10496 10492 10487 10481 10474 10468 10464 10460 10454 10447 10441 10436 10431 10424 10419 10413 10401 10392 10388 10385 10377 10370 10363 10356 10348 10340 10332 10324 10315 10307 10300 10292 10285 10276 10267 10258
10648 10645 10641 10638 10634 10631 10627 10624 10621 10619 10616 10614 10611 10609 10607 10605 10603 10601 10598 10596 10594 10592 10590 10588 10585 10583 10581 10579 10576 10573 10571 10568 10565 10562 10559 10556 10553 10549 10546 10543 10539 10536 10532 10529 10525 10520 10515 10511 10509 10506 10503 10500 10496 10490 10484 10479 10471 10463 10457 10453 10447 10440 10434 10428 10422 10416 10409 10403 10393 10380 10375 10373 10365 10357 10351 10342 10334 10325 10316 10308 10299 10290 10282 10274 10266 10256 10246 10237
10644 10641 10637 10634 10630 10627 10624 10621 10618 10616 10613 10611 10609 10607 10605 10603 10600 10598 10596 10594 10591 10589 10587 10584 10582 10580 10577 10574 10572 10569 10566 10563 10560 10557 10554 10551 10547 10544 10540 10537 10534 10530 10527 10523 10520 10516 10511 10506 10502 10498 10494 10493 10490 10484 10477 10473 10466 10459 10452 10445 10439 10432 10426 10419 10412 10406 10398 10393 10385 10372 10362 10358 10350 10342 10335 10327 10318 10309 10299 10290 10281 10270 10261 10253 10244 10235 10226 10219
10641 10637 10634 10630 10627 10623 10621 10618 10616 10613 10611 10609 10607 10605 10603 10601 10598 10596 10593 10591 10589 10586 10584 10581 10578 10576 10573 10570 10567 10564 10561 10558 10555 10552 10548 10545 10542 10538 10535 10532 10528 10526 10523 10519 10515 10512 10507 10501 10497 10490 10484 10483 10482 10475 10468 10463 10457 10452 10446 10439 10431 10424 10417 10409 10401 10394 10387 10380 10374 10364 10353 10345 10336 10327 10320 10311 10302 10293 10283 10273 10264 10254 10246 10239 10231 10222 10214 10207
10637 10634 10630 10627 10624 10620 10618 10615 10613 10611 10609 10607 10605 10603 10601 10598 10595 10593 10590 10588 10585 10583 10580 10577 10574 10571 10568 10565 10562 10559 10556 10552 10549 10546 10543 10540 10537 10533 10530 10527 10524 10521 10518 10515 10510 10507 10503 10497 10492 10484 10476 10473 10472 10466 10460 10455 10448 10442 10437 10431 10424 10415 10408 10400 10390 10382 10374 10365 10359 10352 10344 10334 10324 10315 10306 10297 10288 10280 10271 10262 10253 10243 10236 10228 10219 10211 10203 10194
10633 10630 10627 10624 10621 10618 10616 10613 10611 10609 10607 10605 10602 10600 10598 10595 10592 10590 10587 10585 10582 10579 10576 10573 10570 10567 10564 10561 10558 10555 10552 10548 10545 10542 10539 10536 10533 10530 10526 10523 10520 10517 10513 10510 10505 10501 10498 10493 10488 10481 10471 10466 10463 10458 10451 10446 10439 10432 10427 10421 10414 10406 10398 10390 10380 10371 10363 10353 10344 10338 10330 10321 10311 10302 10293 10284 10276 10267 10258 10250 10240 10231 10223 10214 10205 10196 10188 10179
10629 10626 10624 10621 10618 10616 10614 10612 10609 10607 10605 10602 10600 10597 10595 10592 10589 10586 10583 10581 10578 10575 10572 10570 10567 10564 10561 10558 10554 10551 10548 10546 10543 10540 10536 10533 10530 10528 10524 10520 10517 10513 10509 10505 10501 10496 10493 10488 10484 10478 10469 10461 10457 10450 10442 10436 10430 10422 10416 10410 10403 10396 10388 10379 10370 10361 10351 10342 10332 10324 10317 10308 10298 10289 10279 10270 10261 10252 10243 10235 10226 10217 10209 10200 10191 10181 10172 10163
10626 10624 10621 10618 10616 10614 10612 10609 10607 10605 10602 10600 10597 10594 10592 10589 10586 10583 10580 10577 10575 10572 10569 10566 10563 10560 10557 10555 10552 10549 10546 10543 10541 10538 10535 10531 10528 10525 10521 10517 10513 10509 10505 10501 10496 10491 10487 10482 10478 10473 10465 10456 10451 10444 10435 10427 10420 10413 10407 10400 10393 10386 10377 10368 10359 10349 10339 10331 10323 10314 10306 10297 10287 10277 10268 10257 10247 10238 10229 10220 10211 10203 10194 10185 10176 10168 10158 10149
10624 10621 10619 10616 10614 10612 10610 10607 10605 10603 10600 10597 10594 10591 10589 10586 10583 10580 10577 10574 10572 10569 10566 10563 10560 10558 10555 10552 10549 10547 10544 10541 10538 10535 10531 10528 10525 10521 10517 10513 10509 10505 10501 10496 10491 10486 10481 10476 10470 10466 10459 10450 10443 10437 10429 10421 10413 10405 10397 10390 10383 10376 10367 10358 10348 10337 10324 10315 10309 10302 10294 10285 10276 10267 10257 10246 10234 10223 10214 10204 10195 10189 10182 10172 10163 10154 10145 10137